Wind_Speed
21 22 22 22 22 22 23 23 24 23 22 22 22 21 21 21 21 21 21 21 22 21 21 20 20 21 20 20 20 21 21 21 22 22 23 23 23 23 23 23 24 24 24 24
23 22 24 24 23 23 24 23 24 24 23 22 23 23 22 21 21 21 21 22 22 21 20 21 21 22 22 22 22 22 22 22 23 23 23 24 24 25 25 25 25 25 25 25
23 23 24 24 21 22 23 23 23 24 22 23 23 22 22 22 21 22 22 23 23 23 22 22 22 22 23 23 23 22 23 23 23 23 24 24 24 24 25 25 25 25 26 25
23 23 25 22 21 22 23 23 23 24 23 23 23 24 23 23 24 23 23 24 24 23 22 23 22 22 23 23 23 23 23 23 23 23 23 24 24 24 24 25 26 26 26 26
24 25 25 23 22 22 23 23 23 23 24 24 24 24 23 23 24 24 24 24 25 24 23 24 23 22 23 24 24 24 24 23 23 23 24 24 24 25 25 26 26 27 27 27
25 25 25 24 23 23 23 24 23 24 24 25 25 25 24 24 24 24 24 24 26 25 25 25 25 24 24 24 24 24 24 24 24 24 25 25 26 26 27 27 27 27 28 28
25 26 26 25 24 23 24 23 23 24 25 25 25 25 24 25 25 25 25 25 25 25 25 25 25 24 24 24 24 24 24 25 25 25 26 26 27 27 28 28 28 28 28 29
26 26 25 25 24 24 24 24 24 24 25 25 25 25 25 26 26 25 25 25 25 25 25 25 25 25 24 24 24 24 25 25 26 27 27 28 28 29 29 29 29 30 30 30
27 27 25 25 25 25 25 25 25 25 25 26 26 26 26 26 26 25 24 24 25 25 25 25 25 25 25 25 25 25 25 26 27 27 28 29 29 30 30 30 30 31 31 31
27 26 26 27 27 27 26 26 25 25 26 27 27 27 26 26 26 26 25 25 25 25 26 26 26 25 25 25 25 26 27 27 28 28 28 29 29 30 31 31 31 32 32 32
28 27 27 28 28 28 28 27 26 26 26 27 27 26 26 26 26 26 26 25 25 25 26 26 27 26 26 26 26 27 28 28 29 29 29 29 30 30 31 31 32 32 32 32
28 28 29 29 29 28 28 28 27 27 27 26 26 26 26 26 26 26 26 26 25 26 26 26 26 26 27 27 27 28 28 29 29 29 30 30 31 31 31 32 32 31 31 32
29 29 29 29 29 28 28 28 27 26 26 25 25 26 26 26 26 26 26 27 27 26 27 27 27 27 27 28 28 29 29 29 29 30 30 31 31 31 32 32 32 31 32 32
29 29 29 29 28 28 28 28 27 26 25 25 25 25 25 25 25 26 27 27 27 28 28 28 28 28 28 29 29 29 30 30 30 31 30 31 32 32 31 31 31 31 32 32
29 29 29 28 28 28 28 28 27 26 25 24 25 25 25 25 25 26 27 27 28 28 28 29 29 29 30 30 30 30 30 30 31 31 31 31 32 32 32 31 31 31 32 32
28 28 29 28 28 28 27 27 26 26 25 25 25 25 25 26 25 25 26 27 28 28 29 29 30 30 30 30 31 31 31 31 31 32 32 32 32 32 32 32 33 33 33 33
28 28 28 27 27 27 27 26 26 25 25 25 25 25 25 26 26 26 26 27 28 29 29 30 30 30 31 31 31 32 33 32 33 33 33 33 33 32 32 33 33 33 33 33
27 27 27 26 26 26 26 26 25 25 25 26 26 26 25 25 26 26 26 27 28 29 30 30 30 30 31 32 32 33 33 34 33 33 33 33 33 33 33 33 33 33 33 33
27 27 26 26 26 26 26 26 26 25 25 25 26 26 26 26 26 27 27 28 29 29 30 31 31 31 32 33 34 34 34 34 35 35 35 35 35 34 34 33 33 33 33 33
27 27 26 26 26 26 26 26 26 26 26 26 26 26 26 26 27 27 27 28 29 30 31 32 32 33 33 34 35 35 35 35 35 36 36 36 36 35 34 33 33 33 33 33
26 26 26 26 26 26 26 26 26 26 26 26 26 27 27 28 28 28 29 29 30 31 32 32 33 33 34 34 35 35 35 36 36 37 37 36 36 35 34 34 32 32 32 32
25 26 26 26 26 27 27 26 26 26 27 27 28 28 29 29 29 30 30 30 31 31 32 33 33 34 34 34 35 36 36 36 36 36 36 36 35 34 33 32 31 31 30 30
25 25 25 25 26 27 27 27 27 28 29 29 29 29 30 30 31 31 31 32 32 33 33 33 34 34 35 35 35 35 35 35 35 34 34 33 32 32 31 31 30 30 29 29
26 26 25 26 26 27 27 27 28 28 29 29 29 29 30 30 30 31 31 32 33 33 33 33 34 34 34 34 33 33 33 33 33 33 32 32 32 31 31 31 31 30 30 29
27 26 26 27 27 28 28 28 28 28 29 29 29 29 30 30 31 31 32 32 32 33 34 34 33 33 33 33 32 32 31 31 32 32 31 31 31 31 30 30 31 30 30 30
27 27 27 27 28 28 28 28 28 28 29 29 30 30 30 30 31 31 32 32 33 33 33 32 32 31 31 31 31 31 31 30 30 30 30 30 30 30 30 30 29 29 30 30
27 27 27 27 27 27 28 28 29 29 29 29 29 29 29 30 31 31 31 32 32 32 31 31 30 30 30 30 30 30 30 29 29 29 29 29 29 29 29 29 29 29 29 29
Wind_Direction
267 266 265 264 263 261 260 262 262 262 262 265 267 266 265 263 261 261 261 260 261 262 263 264 264 267 269 267 270 269 269 269 269 270 273 274 275 275 277 278 278 279 280 281
269 267 266 265 263 261 261 262 262 261 262 265 268 266 265 265 264 263 263 262 261 262 264 264 263 266 268 268 269 270 270 270 270 269 272 274 275 276 277 278 279 279 280 281
271 270 268 266 267 265 263 262 262 261 261 263 264 264 263 263 264 264 265 265 263 263 263 265 267 266 268 269 269 271 271 270 269 270 273 275 276 277 277 278 279 279 280 280
271 271 269 271 269 267 265 265 264 264 263 266 267 264 263 263 263 263 264 266 265 265 265 266 270 269 270 270 270 270 270 270 270 271 274 276 276 278 278 278 279 280 280 280
269 271 274 273 271 269 267 267 267 268 267 267 268 267 266 265 263 262 264 265 264 265 266 268 270 269 270 269 270 270 270 270 270 273 275 277 278 278 278 279 279 280 280 280
268 270 273 275 273 272 271 269 269 269 268 268 269 267 265 263 261 262 264 265 264 265 267 269 270 269 270 269 270 270 270 270 271 273 276 277 279 279 279 279 279 279 280 281
268 269 272 274 273 272 272 272 271 270 270 270 269 267 266 264 263 261 263 265 264 265 266 269 270 270 268 269 269 269 269 270 271 273 276 277 278 279 279 279 279 279 279 279
267 268 270 272 272 271 271 272 272 270 270 271 270 268 265 264 264 263 263 265 265 265 266 268 270 270 268 269 269 269 269 270 272 274 277 278 279 281 280 279 279 280 280 280
266 267 270 271 271 272 271 272 272 270 269 270 270 269 266 264 264 263 263 265 266 263 264 266 268 271 270 270 271 271 273 273 274 276 277 278 280 281 281 280 280 281 281 281
266 267 268 270 271 272 272 272 273 273 272 271 270 269 268 265 264 264 264 265 265 264 264 266 268 272 274 273 273 273 274 276 276 276 277 279 282 283 282 280 280 281 282 282
266 267 268 270 271 272 273 273 273 273 274 271 270 269 268 266 264 265 266 265 264 265 266 267 270 273 276 276 277 277 276 277 277 277 278 279 281 282 282 281 281 281 282 283
267 267 268 270 271 272 272 273 274 273 272 272 271 270 268 266 265 265 265 265 265 265 267 269 271 273 276 276 278 279 278 278 278 280 280 281 281 282 282 281 281 281 282 281
267 268 268 268 269 270 272 272 272 272 271 271 271 271 269 268 265 264 265 265 265 266 268 269 271 273 276 278 279 280 281 280 280 281 282 284 284 283 283 281 280 279 280 282
266 267 267 267 268 269 270 271 271 269 270 271 272 271 270 269 267 265 264 265 265 267 269 271 272 274 276 278 280 281 282 283 282 283 283 284 285 286 286 285 282 281 281 283
267 267 266 267 268 269 270 270 269 268 269 271 272 271 271 270 268 266 265 266 267 269 271 272 273 274 276 278 280 281 282 283 283 283 283 283 284 285 286 286 285 283 282 283
266 266 266 266 267 267 268 268 268 268 268 270 271 270 270 270 268 266 266 266 268 270 272 273 273 274 276 279 279 280 281 282 282 283 283 283 283 284 284 284 283 283 282 282
265 264 264 265 265 265 266 267 266 267 270 270 271 270 270 270 269 268 268 268 270 272 274 275 274 275 277 279 280 280 282 282 282 282 282 283 284 283 283 282 282 282 282 283
264 263 264 264 264 265 265 266 265 268 271 272 270 269 269 270 269 270 270 271 272 273 275 276 277 277 278 280 281 282 282 283 283 282 282 283 284 284 283 282 281 281 282 283
262 261 262 263 264 264 265 266 265 266 269 271 271 271 271 270 270 270 272 274 276 276 277 279 279 279 279 280 281 282 282 283 283 282 283 283 282 283 282 281 280 280 280 281
263 263 262 263 264 264 265 266 265 266 269 271 272 273 273 273 273 274 275 277 278 279 279 280 281 281 280 281 282 282 282 282 283 282 282 282 281 281 280 280 279 280 281 282
264 264 263 262 263 263 264 265 265 267 269 270 272 273 274 276 276 276 276 278 279 279 280 282 283 283 282 282 283 283 283 283 282 282 282 282 282 281 280 280 280 280 281 281
265 265 264 263 262 262 263 265 266 267 269 271 272 273 274 275 276 277 278 278 279 280 281 283 284 284 284 284 285 284 284 284 282 282 282 281 281 281 280 281 281 282 283 283
266 266 265 264 265 265 266 267 268 269 270 271 272 273 274 275 276 277 279 279 280 281 282 283 284 284 284 285 285 285 285 284 283 283 282 281 280 280 279 279 280 282 283 283
266 266 265 265 265 266 266 267 269 270 271 272 273 274 275 276 276 277 279 280 281 282 283 284 285 285 285 285 285 285 285 284 283 283 282 281 280 278 278 278 279 280 282 282
267 267 267 266 267 268 268 269 270 271 271 272 274 276 277 277 277 278 280 281 283 284 285 284 285 285 285 285 285 285 284 284 283 282 281 280 280 278 276 277 278 279 280 281
267 266 266 266 266 267 268 269 271 272 273 274 276 277 279 279 279 280 280 282 283 285 285 285 285 285 284 284 284 285 284 284 284 282 281 280 279 278 278 279 280 279 280 281
266 267 267 265 264 265 267 268 270 273 274 275 276 277 279 281 282 283 283 284 285 285 285 286 286 286 285 284 283 283 283 283 283 282 281 281 280 278 279 280 280 279 279 280
Height
5783 5783 5783 5783 5783 5783 5782 5783 5783 5784 5784 5785 5784 5784 5784 5784 5785 5785 5786 5786 5787 5787 5787 5787 5788 5788 5787 5787 5787 5787 5787 5786 5786 5785 5785 5784 5784 5783 5782 5782 5781 5780 5779 5778
5777 5777 5776 5775 5776 5776 5776 5776 5777 5777 5778 5779 5778 5777 5778 5778 5779 5779 5779 5780 5780 5780 5781 5781 5781 5781 5781 5781 5781 5780 5780 5780 5779 5779 5778 5778 5777 5776 5775 5775 5774 5773 5772 5771
5770 5770 5768 5769 5770 5770 5770 5770 5770 5771 5773 5771 5771 5771 5771 5772 5772 5773 5773 5773 5773 5774 5774 5774 5774 5775 5775 5774 5774 5774 5773 5773 5772 5771 5771 5770 5770 5769 5768 5767 5766 5765 5764 5763
5762 5763 5761 5766 5764 5763 5763 5763 5764 5764 5764 5764 5764 5764 5764 5765 5765 5766 5766 5766 5767 5767 5767 5767 5767 5768 5768 5768 5767 5766 5766 5766 5765 5765 5764 5763 5763 5761 5760 5760 5759 5758 5756 5755
5756 5755 5755 5757 5757 5756 5756 5757 5757 5757 5757 5757 5757 5757 5758 5758 5758 5759 5759 5759 5760 5760 5760 5760 5760 5760 5760 5760 5760 5759 5759 5758 5758 5757 5757 5756 5755 5754 5753 5752 5751 5749 5748 5747
5748 5748 5748 5751 5750 5750 5750 5749 5750 5750 5750 5750 5750 5750 5751 5751 5751 5751 5752 5752 5752 5753 5753 5753 5753 5753 5753 5752 5752 5751 5751 5751 5750 5750 5749 5748 5747 5746 5745 5743 5742 5741 5739 5738
5741 5740 5741 5743 5743 5743 5744 5744 5743 5742 5742 5742 5742 5743 5743 5743 5743 5744 5744 5744 5745 5745 5745 5745 5745 5745 5744 5744 5744 5744 5743 5743 5742 5742 5741 5740 5739 5737 5736 5735 5733 5732 5731 5729
5733 5733 5736 5735 5735 5736 5736 5735 5735 5734 5734 5734 5734 5734 5734 5735 5735 5735 5736 5736 5737 5737 5737 5737 5737 5737 5736 5736 5735 5735 5735 5734 5734 5733 5732 5731 5729 5728 5726 5725 5724 5722 5721 5719
5726 5728 5728 5727 5727 5727 5727 5727 5727 5727 5727 5726 5726 5726 5726 5727 5727 5727 5728 5728 5729 5729 5729 5729 5729 5729 5728 5728 5727 5727 5726 5725 5725 5724 5723 5721 5720 5718 5716 5715 5713 5712 5710 5709
5717 5719 5719 5719 5718 5718 5718 5718 5718 5718 5718 5718 5718 5718 5718 5718 5719 5719 5719 5720 5720 5721 5721 5721 5720 5720 5720 5719 5719 5718 5717 5716 5716 5714 5713 5712 5710 5707 5705 5704 5703 5702 5700 5699
5709 5710 5710 5710 5710 5710 5710 5710 5710 5710 5709 5709 5709 5709 5710 5710 5710 5711 5711 5711 5712 5712 5712 5712 5712 5711 5711 5711 5710 5709 5708 5707 5706 5705 5703 5702 5700 5698 5696 5694 5693 5691 5690 5688
5700 5701 5701 5701 5701 5701 5701 5701 5701 5701 5701 5701 5701 5701 5701 5702 5702 5702 5702 5703 5703 5703 5703 5703 5703 5703 5702 5702 5701 5700 5699 5698 5696 5695 5693 5692 5690 5688 5686 5684 5682 5680 5679 5678
5691 5691 5691 5692 5692 5692 5692 5692 5692 5692 5692 5692 5692 5693 5693 5693 5693 5693 5694 5694 5694 5695 5695 5694 5694 5694 5693 5692 5691 5690 5689 5687 5686 5685 5683 5682 5680 5678 5676 5675 5672 5671 5669 5668
5681 5681 5682 5683 5683 5683 5683 5683 5683 5684 5684 5684 5684 5684 5684 5684 5684 5685 5685 5685 5685 5686 5686 5685 5685 5685 5684 5683 5682 5680 5679 5677 5676 5674 5673 5672 5670 5668 5666 5664 5663 5661 5660 5657
5673 5672 5673 5673 5673 5674 5674 5674 5675 5675 5676 5676 5676 5676 5676 5676 5676 5676 5676 5676 5676 5677 5676 5676 5675 5675 5674 5673 5672 5670 5669 5668 5666 5664 5663 5661 5660 5658 5656 5654 5652 5651 5649 5647
5663 5663 5663 5664 5665 5665 5665 5666 5667 5667 5667 5668 5668 5668 5668 5668 5667 5667 5667 5667 5667 5667 5667 5666 5666 5665 5664 5663 5662 5660 5659 5657 5656 5654 5652 5651 5649 5647 5646 5644 5642 5641 5639 5637
5654 5654 5655 5655 5656 5657 5657 5658 5658 5659 5659 5659 5659 5659 5659 5659 5659 5659 5659 5658 5658 5658 5657 5656 5655 5655 5654 5653 5651 5650 5648 5647 5645 5644 5642 5640 5639 5637 5635 5633 5632 5630 5628 5626
5645 5645 5646 5647 5647 5648 5649 5649 5650 5650 5650 5650 5650 5650 5650 5650 5650 5650 5650 5649 5649 5648 5648 5646 5645 5644 5643 5642 5640 5639 5638 5636 5634 5633 5631 5630 5628 5626 5624 5622 5621 5619 5617 5615
5636 5636 5637 5638 5638 5639 5640 5640 5641 5641 5642 5642 5642 5642 5642 5642 5642 5641 5641 5640 5639 5639 5638 5637 5635 5634 5633 5631 5630 5628 5627 5625 5624 5622 5620 5618 5617 5615 5613 5611 5609 5608 5606 5604
5627 5628 5629 5629 5630 5631 5631 5632 5632 5633 5633 5633 5634 5633 5633 5633 5633 5632 5632 5631 5630 5629 5628 5626 5625 5624 5622 5620 5619 5617 5615 5614 5612 5610 5608 5607 5605 5603 5602 5600 5598 5597 5595 5593
5619 5619 5620 5621 5622 5622 5623 5623 5624 5624 5625 5625 5625 5625 5624 5624 5623 5623 5622 5621 5621 5619 5618 5616 5614 5613 5611 5609 5608 5606 5604 5602 5600 5599 5597 5595 5593 5592 5591 5589 5587 5586 5584 5583
5610 5611 5612 5612 5613 5614 5614 5615 5615 5615 5616 5616 5616 5616 5615 5614 5614 5613 5612 5611 5610 5609 5607 5606 5604 5602 5600 5598 5596 5594 5592 5590 5588 5586 5585 5583 5582 5580 5579 5578 5577 5575 5574 5572
5602 5602 5603 5604 5604 5605 5605 5606 5606 5606 5607 5606 5606 5606 5605 5605 5604 5603 5602 5601 5600 5598 5597 5595 5593 5591 5589 5587 5585 5582 5580 5578 5576 5575 5573 5572 5570 5569 5568 5567 5566 5565 5564 5562
5593 5593 5594 5595 5595 5596 5596 5596 5597 5597 5597 5597 5596 5596 5595 5594 5594 5593 5592 5590 5589 5587 5586 5584 5582 5580 5577 5575 5573 5571 5569 5567 5565 5564 5562 5561 5560 5559 5558 5557 5556 5555 5553 5552
5584 5584 5585 5585 5586 5586 5587 5587 5587 5587 5587 5587 5586 5586 5585 5584 5584 5583 5581 5580 5578 5576 5575 5573 5571 5568 5566 5565 5563 5561 5559 5557 5555 5553 5552 5550 5549 5548 5547 5546 5546 5545 5543 5542
5575 5575 5575 5576 5576 5577 5577 5577 5577 5577 5577 5577 5577 5576 5575 5574 5573 5572 5571 5569 5568 5566 5564 5562 5560 5558 5556 5555 5553 5551 5549 5547 5545 5543 5541 5540 5539 5538 5537 5537 5536 5535 5533 5532
5565 5566 5566 5566 5567 5567 5568 5568 5568 5567 5567 5567 5566 5565 5564 5563 5562 5561 5560 5558 5557 5555 5553 5551 5550 5548 5546 5545 5543 5541 5539 5537 5536 5534 5532 5531 5530 5529 5528 5527 5526 5525 5524 5522